Weather History for GMMZ - April, 2013

Change the Weather History Date:

Saturday, April 20, 2013

  Actual Average Record
Temperature  
Mean Temperature 80 °F -  
Max Temperature 88 °F 82 °F - ()
Min Temperature 71 °F 55 °F - ()
Cooling Degree Days 14    
Growing Degree Days 30 (Base 50)    
Moisture  
Dew Point 29 °F    
Average Humidity 14    
Maximum Humidity 28    
Minimum Humidity 5    
Precipitation  
Precipitation 0.01 in 0.01 in - ()
Sea Level Pressure  
Sea Level Pressure 30.10 in    
Wind  
Wind Speed 5 mph ()    
Max Wind Speed 22 mph    
Max Gust Speed -    
Visibility 6.4 miles    
Events Thunderstorm    
T = Trace of Precipitation, MM = Missing Value Source: Averaged Metar Reports

Daily Weather History Graph

Daily Weather History Graph

Search for Another Location

Airport or City:

Trip Planner

Search our weather history database for the weather conditions in past years. The results will help you decide how hot, cold, wet, or windy it might be!

Date:

Astronomy

Apr. 20, 2013 Rise Set
Actual Time 5:54 AM WET 6:59 PM WET
Civil Twilight 5:29 AM WET 7:24 PM WET
Nautical Twilight 4:59 AM WET 7:53 PM WET
Astronomical Twilight 4:29 AM WET 8:24 PM WET
Moon 1:50 PM WET (4/20) 2:13 AM WET (4/20)
Length of Visible Light 13h 54m
Length of Day
13h 04m
Waxing Gibbous, 69% of the Moon is Illuminated
Apr 20
Waxing Gibbous
Apr 25
Full
May 2
Last Quarter
May 10
New
May 18
First Quarter

Hourly Weather History & Observations

Time (WET) Temp. Dew Point Humidity Pressure Visibility Wind Dir Wind Speed Gust Speed Precip Events Conditions
12:00 AM 80 °F 28 °F 7%  in 6 mi NE 2.3 mph - -   Partly Cloudy
12:00 AM 78.8 °F 28.4 °F 16% 30.12 in 6.2 mi Variable 2.3 mph - N/A   Partly Cloudy
1:00 AM 78.8 °F 26.6 °F 15% 30.12 in 6.2 mi Variable 4.6 mph - N/A   Scattered Clouds
2:00 AM 78.8 °F 26.6 °F 15% 30.09 in - North - - N/A   Scattered Clouds
3:00 AM 77 °F 30 °F 10%  in 6 mi SW 3.5 mph - -   Scattered Clouds
3:00 AM 77.0 °F 30.2 °F 18% 30.09 in 6.2 mi Variable 3.5 mph - N/A   Partly Cloudy
4:00 AM 73.4 °F 30.2 °F 20% 30.09 in 6.2 mi Calm Calm - N/A   Partly Cloudy
5:00 AM 71.6 °F 30.2 °F 22% 30.09 in 6.2 mi Variable 2.3 mph - N/A   Partly Cloudy
6:00 AM 72 °F 26 °F 9%  in 6 mi ENE 2.3 mph - -   Scattered Clouds
6:00 AM 71.6 °F 26.6 °F 19% 30.12 in 6.2 mi Variable 2.3 mph - N/A   Partly Cloudy
7:00 AM 73.4 °F 23.0 °F 15% 30.12 in 6.2 mi Variable 1.2 mph - N/A   Partly Cloudy
8:00 AM 73.4 °F 30.2 °F 20% 30.15 in 6.2 mi Variable 1.2 mph - N/A   Partly Cloudy
9:00 AM 80 °F 26 °F 7%  in 12 mi ENE 9.2 mph - -   Scattered Clouds
9:00 AM 80.6 °F 24.8 °F 13% 30.15 in 6.2 mi ENE 10.4 mph - N/A   Partly Cloudy
11:00 AM 82.4 °F 24.8 °F 12% 30.15 in 6.2 mi Variable 3.5 mph - N/A   Partly Cloudy
12:00 PM 85 °F 28 °F 6%  in 6 mi SSE 3.5 mph - -   Scattered Clouds
12:00 PM 84.2 °F 28.4 °F 13% 30.12 in 6.2 mi Variable 3.5 mph - N/A   Unknown
1:00 PM 84.2 °F 26.6 °F 12% 30.09 in 6.2 mi Variable 3.5 mph - N/A   Scattered Clouds
2:00 PM 87.8 °F 26.6 °F 11% 30.06 in 6.2 mi WSW 10.4 mph - N/A   Partly Cloudy
3:00 PM 87 °F 26 °F 5%  in 6 mi WSW 9.2 mph - -   Mostly Cloudy
3:00 PM 87.8 °F 26.6 °F 11% 30.06 in 6.2 mi WSW 9.2 mph - N/A   Scattered Clouds
4:00 PM 78.8 °F 42.8 °F 28% 30.06 in 6.2 mi SSE 15.0 mph - N/A Thunderstorm Thunderstorm
5:00 PM 82.4 °F 32.0 °F 16% 30.06 in 6.2 mi SSE 11.5 mph - N/A   Partly Cloudy
6:00 PM 80 °F 37 °F 13%  in 6 mi NNW 21.9 mph - -   Partly Cloudy
6:00 PM 78.8 °F 33.8 °F 20% 30.09 in 6.2 mi NNW 21.9 mph - N/A   Partly Cloudy
7:00 PM 78.8 °F 35.6 °F 21% 30.06 in 6.2 mi ESE 6.9 mph - N/A   Scattered Clouds
8:00 PM 78.8 °F 33.8 °F 20% 30.09 in 6.2 mi Variable 2.3 mph - N/A   Scattered Clouds
9:00 PM 77 °F 26 °F 7%  in 6 mi West 6.9 mph - -   Scattered Clouds
9:00 PM 77.0 °F 28.4 °F 17% 30.12 in 6.2 mi West 6.9 mph - N/A   Partly Cloudy
10:00 PM 73.4 °F 19.4 °F 13% 30.12 in - WNW 9.2 mph - N/A   Clear
11:00 PM 73.4 °F 21.2 °F 14% 30.12 in 6.2 mi West 6.9 mph - N/A   Partly Cloudy